| time (UTC) | temp C | wind direction | speed KPH | gust KPH | rain 1hr cm | rain 24hr cm | rain mn cm | humidity % | barometer mb |
| 20260508193058 | 7 | 41 | 12.9 | 17.7 | 0.00 | 1.65 | 0.00 | 84 | 1001.3 |
| 20260508191546 | 8 | 40 | 14.5 | 22.5 | 0.00 | 1.65 | 0.00 | 85 | 1001.2 |
| 20260508190045 | 7 | 49 | 14.5 | 22.5 | 0.00 | 2.77 | 0.00 | 87 | 1001.3 |
| 20260508184545 | 7 | 40 | 12.9 | 19.3 | 0.00 | 2.77 | 0.00 | 86 | 1001.1 |
| 20260508183059 | 8 | 48 | 16.1 | 20.9 | 0.00 | 2.77 | 0.00 | 85 | 1001.1 |
| 20260508181552 | 8 | 43 | 12.9 | 19.3 | 0.00 | 2.77 | 0.00 | 85 | 1001.2 |
| 20260508180043 | 8 | 39 | 11.3 | 19.3 | 0.00 | 2.82 | 0.00 | 85 | 1001.2 |
| 20260508174542 | 8 | 25 | 16.1 | 20.9 | 0.00 | 2.82 | 0.00 | 86 | 1001.2 |
| 20260508173040 | 8 | 15 | 14.5 | 20.9 | 0.00 | 2.82 | 0.00 | 86 | 1001.1 |
| 20260508171547 | 8 | 20 | 17.7 | 20.9 | 0.00 | 2.82 | 0.00 | 86 | 1001.3 |
| 20260508170038 | 8 | 19 | 14.5 | 19.3 | 0.00 | 2.84 | 0.00 | 86 | 1001.4 |
| 20260508164537 | 7 | 39 | 12.9 | 17.7 | 0.00 | 2.84 | 0.00 | 88 | 1001.4 |
| 20260508163039 | 7 | 10 | 11.3 | 17.7 | 0.00 | 2.84 | 0.00 | 88 | 1001.3 |
| 20260508161538 | 7 | 36 | 12.9 | 16.1 | 0.00 | 2.84 | 0.00 | 88 | 1001.4 |
| 20260508160038 | 7 | 56 | 9.7 | 16.1 | 0.00 | 2.84 | 0.00 | 89 | 1001.4 |
| 20260508154534 | 7 | 47 | 9.7 | 14.5 | 0.00 | 2.84 | 0.00 | 88 | 1001.6 |
| 20260508153033 | 7 | 27 | 11.3 | 16.1 | 0.00 | 2.84 | 0.00 | 89 | 1001.4 |
| 20260508151535 | 7 | 23 | 11.3 | 17.7 | 0.00 | 2.84 | 0.00 | 90 | 1001.5 |
| 20260508150039 | 7 | 19 | 12.9 | 17.7 | 0.00 | 2.84 | 0.00 | 89 | 1001.6 |
| 20260508144605 | 7 | 23 | 14.5 | 17.7 | 0.00 | 2.84 | 0.00 | 90 | 1001.7 |
| 20260508143037 | 7 | 22 | 14.5 | 17.7 | 0.00 | 2.84 | 0.00 | 90 | 1001.8 |
| 20260508141530 | 7 | 16 | 12.9 | 17.7 | 0.00 | 2.84 | 0.00 | 90 | 1002.1 |
| 20260508140037 | 7 | 43 | 12.9 | 17.7 | 0.00 | 2.84 | 0.00 | 91 | 1002.2 |
| 20260508134530 | 8 | 39 | 12.9 | 16.1 | 0.00 | 2.84 | 0.00 | 92 | 1002.5 |
| 20260508133026 | 8 | 52 | 8.0 | 14.5 | 0.00 | 2.84 | 0.00 | 94 | 1002.7 |
| 20260508131527 | 8 | 14 | 9.7 | 14.5 | 0.00 | 2.84 | 0.00 | 96 | 1002.2 |
| 20260508130027 | 7 | 25 | 6.4 | 9.7 | 0.00 | 2.84 | 0.00 | 98 | 1002.0 |
| 20260508124525 | 7 | 13 | 3.2 | 6.4 | 0.00 | 2.84 | 0.00 | 98 | 1002.3 |
| 20260508123026 | 7 | 34 | 4.8 | 6.4 | 0.00 | 2.84 | 0.00 | 98 | 1001.9 |
| 20260508121525 | 6 | 357 | 4.8 | 6.4 | 0.00 | 2.84 | 0.00 | 98 | 1002.3 |
| 20260508120024 | 5 | 10 | 1.6 | 6.4 | 0.00 | 3.07 | 0.00 | 98 | 1002.5 |
| 20260508114531 | 6 | 39 | 1.6 | 4.8 | 0.00 | 3.07 | 0.00 | 98 | 1002.7 |
| 20260508113032 | 5 | 43 | 3.2 | 8.0 | 0.00 | 3.07 | 0.00 | 98 | 1002.5 |
| 20260508111524 | 5 | 38 | 0.0 | 4.8 | 0.00 | 3.07 | 0.00 | 98 | 1002.5 |
| 20260508110020 | 5 | 37 | 3.2 | 8.0 | 0.00 | 3.20 | 0.00 | 98 | 1002.5 |
| 20260508104519 | 5 | 9 | 4.8 | 6.4 | 0.00 | 3.20 | 0.00 | 98 | 1002.9 |
| 20260508103017 | 5 | 122 | 0.0 | 1.6 | 0.00 | 3.20 | 0.00 | 98 | 1002.8 |
| 20260508101517 | 5 | 122 | 0.0 | 4.8 | 0.00 | 3.20 | 0.00 | 98 | 1002.5 |
| 20260508100014 | 5 | 95 | 1.6 | 4.8 | 0.00 | 3.23 | 0.00 | 98 | 1002.2 |
| 20260508094513 | 4 | 95 | 0.0 | 4.8 | 0.00 | 3.23 | 0.00 | 98 | 1002.2 |
| 20260508093015 | 4 | 77 | 3.2 | 6.4 | 0.00 | 3.23 | 0.00 | 98 | 1002.0 |
| 20260508091511 | 4 | 54 | 4.8 | 9.7 | 0.00 | 3.23 | 0.00 | 98 | 1002.0 |
| 20260508090010 | 3 | 49 | 3.2 | 9.7 | 0.00 | 3.23 | 0.00 | 98 | 1002.0 |
| 20260508084509 | 3 | 22 | 6.4 | 12.9 | 0.00 | 3.23 | 0.00 | 98 | 1002.2 |
| 20260508083009 | 3 | 73 | 8.0 | 14.5 | 0.00 | 3.23 | 0.00 | 98 | 1001.7 |
| 20260508081505 | 4 | 28 | 6.4 | 11.3 | 0.00 | 3.23 | 0.00 | 98 | 1001.5 |
| 20260508080002 | 4 | 39 | 6.4 | 9.7 | 0.00 | 3.30 | 0.00 | 98 | 1001.3 |
| 20260508074604 | 5 | 54 | 3.2 | 9.7 | 0.00 | 3.30 | 0.00 | 98 | 1001.6 |
| 20260508073105 | 5 | 52 | 6.4 | 9.7 | 0.00 | 3.30 | 0.00 | 98 | 1001.6 |
| 20260508071554 | 5 | 54 | 6.4 | 12.9 | 0.00 | 3.30 | 0.00 | 98 | 1001.8 |
| 20260508070051 | 5 | 48 | 4.8 | 12.9 | 0.00 | 3.33 | 0.00 | 98 | 1001.8 |
| 20260508064602 | 6 | 63 | 6.4 | 11.3 | 0.00 | 3.33 | 0.00 | 98 | 1001.5 |
| 20260508063045 | 6 | 24 | 6.4 | 9.7 | 0.00 | 3.33 | 0.00 | 98 | 1001.7 |
| 20260508061553 | 6 | 24 | 8.0 | 12.9 | 0.00 | 3.33 | 0.00 | 98 | 1001.7 |
| 20260508060047 | 6 | 21 | 4.8 | 8.0 | 0.00 | 3.33 | 0.00 | 98 | 1001.7 |
| 20260508054604 | 7 | 39 | 3.2 | 9.7 | 0.00 | 3.33 | 0.00 | 98 | 1001.8 |
| 20260508053038 | 6 | 80 | 4.8 | 9.7 | 0.00 | 3.33 | 0.00 | 98 | 1001.8 |
| 20260508051539 | 7 | 50 | 8.0 | 16.1 | 0.00 | 3.33 | 0.00 | 97 | 1001.5 |
| 20260508050040 | 7 | 32 | 8.0 | 17.7 | 0.00 | 3.33 | 0.00 | 97 | 1001.6 |
| 20260508044532 | 7 | 34 | 11.3 | 19.3 | 0.00 | 3.33 | 0.00 | 96 | 1001.5 |
| 20260508043040 | 8 | 83 | 0.0 | 0.0 | 0.00 | 3.33 | 0.00 | 98 | 1001.5 |
| 20260508041533 | 8 | 83 | 0.0 | 0.0 | 0.00 | 3.33 | 0.00 | 98 | 1001.4 |
| 20260508040026 | 8 | 83 | 0.0 | 4.8 | 0.00 | 3.33 | 0.00 | 98 | 1001.4 |
| 20260508034528 | 8 | 64 | 1.6 | 4.8 | 0.00 | 3.33 | 0.00 | 98 | 1001.7 |
| 20260508033023 | 8 | 352 | 0.0 | 3.2 | 0.00 | 3.33 | 0.00 | 98 | 1001.7 |
| 20260508031521 | 8 | 352 | 1.6 | 9.7 | 0.00 | 3.33 | 0.00 | 98 | 1001.8 |
| 20260508030017 | 9 | 124 | 3.2 | 6.4 | 0.00 | 3.33 | 3.33 | 98 | 1001.9 |
| 20260508024520 | 9 | 166 | 0.0 | 3.2 | 0.00 | 3.33 | 3.33 | 98 | 1001.9 |
| 20260508023015 | 9 | 167 | 0.0 | 4.8 | 0.00 | 3.33 | 3.33 | 99 | 1001.7 |
| 20260508021516 | 9 | 197 | 3.2 | 17.7 | 0.00 | 3.33 | 3.33 | 99 | 1001.9 |
| 20260508020014 | 8 | 191 | 14.5 | 22.5 | 0.00 | 3.33 | 3.33 | 98 | 1001.8 |
| 20260508014512 | 8 | 206 | 8.0 | 16.1 | 0.00 | 3.33 | 3.33 | 98 | 1001.7 |
| 20260508013010 | 9 | 212 | 6.4 | 14.5 | 0.00 | 3.33 | 3.33 | 98 | 1001.5 |
| 20260508011509 | 9 | 214 | 6.4 | 11.3 | 0.00 | 3.33 | 3.33 | 98 | 1001.3 |
| 20260508010020 | 10 | 202 | 9.7 | 17.7 | 0.00 | 3.33 | 3.33 | 98 | 1001.6 |
| 20260508004505 | 9 | 197 | 11.3 | 17.7 | 0.00 | 3.33 | 3.33 | 98 | 1001.6 |
| 20260508003005 | 10 | 189 | 11.3 | 20.9 | 0.00 | 3.33 | 3.33 | 98 | 1001.8 |
| 20260508001505 | 10 | 201 | 16.1 | 24.1 | 0.00 | 3.33 | 3.33 | 98 | 1001.8 |
| 20260508000005 | 9 | 208 | 14.5 | 24.1 | 0.00 | 3.33 | 3.33 | 98 | 1001.8 |
| 20260507234505 | 9 | 357 | 14.5 | 27.4 | 0.00 | 3.33 | 3.33 | 98 | 1001.8 |
| 20260507233001 | 10 | 212 | 11.3 | 22.5 | 0.00 | 3.33 | 3.33 | 98 | 1002.0 |
| 20260507231501 | 10 | 199 | 12.9 | 24.1 | 0.00 | 3.33 | 3.33 | 98 | 1001.9 |
| 20260507230104 | 10 | 197 | 19.3 | 29.0 | 0.00 | 3.33 | 3.33 | 98 | 1002.0 |
| 20260507224558 | 10 | 209 | 17.7 | 25.7 | 0.00 | 3.33 | 3.33 | 98 | 1001.8 |
| 20260507223103 | 10 | 185 | 12.9 | 19.3 | 0.00 | 3.33 | 3.33 | 97 | 1002.4 |
| 20260507221601 | 10 | 199 | 14.5 | 19.3 | 0.00 | 3.33 | 3.33 | 97 | 1002.5 |
| 20260507220054 | 10 | 195 | 12.9 | 22.5 | 0.00 | 3.33 | 3.33 | 97 | 1002.6 |
| 20260507214551 | 10 | 357 | 12.9 | 24.1 | 0.05 | 3.33 | 3.33 | 97 | 1002.5 |
| 20260507213050 | 10 | 238 | 1.6 | 8.0 | 0.08 | 3.33 | 3.33 | 97 | 1002.4 |
| 20260507211557 | 10 | 229 | 6.4 | 12.9 | 0.18 | 3.33 | 3.33 | 97 | 1002.1 |
| 20260507210049 | 10 | 191 | 8.0 | 22.5 | 0.33 | 3.33 | 3.33 | 98 | 1001.5 |
| 20260507204542 | 10 | 231 | 3.2 | 17.7 | 0.58 | 3.28 | 3.28 | 97 | 1001.9 |
| 20260507203039 | 9 | 202 | 9.7 | 16.1 | 0.86 | 3.25 | 3.25 | 98 | 1002.5 |
| 20260507201537 | 9 | 221 | 4.8 | 12.9 | 1.17 | 3.15 | 3.15 | 97 | 1002.9 |
| 20260507200036 | 9 | 206 | 11.3 | 16.1 | 1.32 | 2.97 | 2.97 | 97 | 1003.5 |
| 20260507194531 | 9 | 190 | 4.8 | 9.7 | 1.37 | 2.69 | 2.69 | 96 | 1004.2 |